{"data":{"norad_id":68471,"intl_designator":"2026-067BH","name":"LEMUR-2-DELOITTE-3","alt_names":[],"object_type":"PAYLOAD","status":"ACTIVE","operator":null,"country":"US","launch_date":"2026-03-30","launch_site_code":"AFWTR","launch_vehicle":null,"mission":null,"orbit_class":"UNKNOWN","rcs_meters":null,"size_class":null,"mass_kg":null,"dimensions":null,"purposes":[],"wikipedia_slug":null,"has_3d_model":false,"image_url":null,"decayed_at":null,"tle_current":{"epoch":"2026-09-20T02:44:38.989824Z","epoch_age_seconds":102305,"freshness":"FRESH","line1":"1 68471U 26067BH  26263.11434016  .00002860  00000+0  28598-3 0  9996","line2":"2 68471  97.7675 219.8569 0005593  91.6300 268.5560 14.92229324 25883","mean_motion":14.92229324,"eccentricity":0.0005593,"inclination_deg":97.7675,"raan_deg":219.8569,"arg_perigee_deg":91.63,"mean_anomaly_deg":268.556,"bstar":0.00028598,"rev_number":2588,"period_min":96.499913038835,"perigee_km":587.08814287283,"apogee_km":594.88380383082,"semimajor_km":6969.1229733518,"source":"CELESTRAK","updated_at":"2026-09-20T09:00:24.241084Z"}}}